User: anonymous   Login
Location: Unspecified
(0.0000°N, 0.0000°E)
Time: 17:11:45
(UTC+00:00)
Language:

Vela 1A - Orbit

View from above orbital plane
View from above orbital plane
View from above satellite
View from above satellite

Ground track
Ground track

The orbit data is extracted from the following two-line orbital elements,

1   692U 63039C   21288.54074116 -.00001665  00000-0  00000+0 0  9995
2   692  12.4287 316.2313 5421787 266.8653 358.3012  0.22088777 46791
Epoch (UTC): 15 October 2021 12:58:40
Eccentricity: 0.5421787
inclination: 12.4287°
perigee height: 46545 km
apogee height: 171894 km
right ascension of ascending node: 316.2313°
argument of perigee: 266.8653°
revolutions per day: 0.22088777
mean anomaly at epoch: 358.3012°
orbit number at epoch: 4679

The dashed part of the orbit path shows where the satellite is in the earth's shadow,  

DLR